Погода в Солтоне

Россия / Алтайский край     52°50′47″N   86°28′32″E
темп.,
°C
ветер,
м/с
пор.,
м/с
влажн.,
%
обл.,
%
осадки,
мм/ч
давл.,
гПа
погр.,
м
24 июля, сб
сб2401:00+18ю2497100 4.1 1004107
04:00+17ююз2497100 0.0 100495
07:00+17ююз2397100 0.0 1005127
10:00+22юз347988 0.0 1005671
13:00+25зюз346322 0.0 10051243
16:00+26з336126 0.2 10051317
19:00+24з24755 1.1 1006489
22:00+19юз11906 0.1 100611
25 июля, вс
вс2501:00+18ююз22945 0.1 100731
04:00+17ю22976 0.0 100721
07:00+18ююз12955 0.0 100899
10:00+23юз23755 0.0 1008615
13:00+26зсз22585 0.0 10071038
16:00+27зсз22550 0.0 10061375
19:00+26юз11670 0.0 1005710
22:00+20ююв118219 0.0 100511
26 июля, пн
пн2601:00+18юв118880 0.0 100411
04:00+18юв1191100 0.0 100312
07:00+19юв128887 0.0 100372
10:00+25ю356414 0.0 1002446
13:00+29юз454969 0.0 10021101
16:00+26з585834 0.0 1002687
19:00+23юз3685100 1.5 1003158
22:00+17юз31097100 3.3 1004331
27 июля, вт
вт2701:00+16юз2499100 6.4 1005142
04:00+16зсз3697100 0.8 1006325
07:00+14зсз269699 1.1 1008214
10:00+17зсз357778 0.1 10091074
13:00+17зсз346389 0.3 1009962
16:00+19юз235686 0.0 10091048
19:00+17з256895 0.0 1010245
22:00+14зсз1274100 0.1 101177
28 июля, ср
ср2801:00+14ссз1170100 0.1 101211
04:00+13ссв1173100 0.0 101214
07:00+12ссв248088 0.0 1012115
10:00+16с236156 0.0 1012580
13:00+20ссз224550 0.0 10111888
16:00+19с2251100 0.0 10111675
19:00+17ссз2464100 0.0 101191
22:00+15св2461100 0.0 101297